| time (UTC) | temp C | wind direction | speed KPH | gust KPH | rain 1hr cm | rain 24hr cm | rain mn cm | humidity % | barometer mb |
| 20260510183109 | 19 | 338 | 0.0 | 3.2 | 0.00 | 0.00 | 0.00 | 75 | 1013.2 |
| 20260510181612 | 18 | 338 | 0.0 | 3.2 | 0.00 | 0.00 | 0.00 | 78 | 1013.4 |
| 20260510180052 | 17 | 338 | 0.0 | 3.2 | 0.00 | 0.00 | 0.00 | 80 | 1013.6 |
| 20260510174557 | 17 | 338 | 0.0 | 3.2 | 0.00 | 0.00 | 0.00 | 82 | 1013.8 |
| 20260510173041 | 16 | 338 | 0.0 | 4.8 | 0.00 | 0.00 | 0.00 | 83 | 1013.9 |
| 20260510171555 | 16 | 338 | 0.0 | 1.6 | 0.00 | 0.00 | 0.00 | 86 | 1013.9 |
| 20260510170034 | 14 | 338 | 0.0 | 0.0 | 0.00 | 0.00 | 0.00 | 87 | 1014.0 |
| 20260510164530 | 13 | 338 | 0.0 | 0.0 | 0.00 | 0.00 | 0.00 | 87 | 1014.0 |
| 20260510163027 | 13 | 338 | 0.0 | 0.0 | 0.00 | 0.00 | 0.00 | 86 | 1013.8 |
| 20260510161523 | 12 | 338 | 0.0 | 0.0 | 0.00 | 0.00 | 0.00 | 86 | 1013.9 |
| 20260510160030 | 12 | 338 | 0.0 | 0.0 | 0.00 | 0.00 | 0.00 | 86 | 1013.8 |
| 20260510154519 | 12 | 338 | 0.0 | 0.0 | 0.00 | 0.00 | 0.00 | 85 | 1013.7 |
| 20260510153029 | 12 | 338 | 0.0 | 1.6 | 0.00 | 0.00 | 0.00 | 85 | 1013.6 |
| 20260510151520 | 11 | 338 | 0.0 | 0.0 | 0.00 | 0.00 | 0.00 | 85 | 1013.6 |
| 20260510150016 | 11 | 338 | 0.0 | 0.0 | 0.00 | 0.00 | 0.00 | 85 | 1013.5 |
| 20260510144514 | 11 | 338 | 0.0 | 0.0 | 0.00 | 0.00 | 0.00 | 86 | 1013.4 |
| 20260510143013 | 11 | 338 | 0.0 | 0.0 | 0.00 | 0.00 | 0.00 | 85 | 1013.5 |
| 20260510141509 | 11 | 338 | 0.0 | 0.0 | 0.00 | 0.00 | 0.00 | 85 | 1013.3 |
| 20260510140008 | 11 | 338 | 0.0 | 0.0 | 0.00 | 0.00 | 0.00 | 85 | 1013.0 |
| 20260510134507 | 11 | 338 | 0.0 | 0.0 | 0.00 | 0.00 | 0.00 | 85 | 1012.9 |
| 20260510133006 | 11 | 338 | 0.0 | 0.0 | 0.00 | 0.00 | 0.00 | 85 | 1012.7 |
| 20260510131506 | 11 | 338 | 0.0 | 0.0 | 0.00 | 0.00 | 0.00 | 86 | 1012.5 |
| 20260510130104 | 11 | 338 | 0.0 | 0.0 | 0.00 | 0.00 | 0.00 | 85 | 1012.5 |
| 20260510124505 | 11 | 338 | 0.0 | 0.0 | 0.00 | 0.00 | 0.00 | 86 | 1012.5 |
| 20260510123003 | 11 | 338 | 0.0 | 0.0 | 0.00 | 0.00 | 0.00 | 86 | 1012.5 |
| 20260510121502 | 11 | 338 | 0.0 | 0.0 | 0.00 | 0.00 | 0.00 | 86 | 1012.6 |
| 20260510120002 | 11 | 338 | 0.0 | 0.0 | 0.00 | 0.00 | 0.00 | 86 | 1012.6 |
| 20260510114622 | 11 | 338 | 0.0 | 0.0 | 0.00 | 0.00 | 0.00 | 86 | 1012.7 |
| 20260510113102 | 11 | 338 | 0.0 | 0.0 | 0.00 | 0.00 | 0.00 | 86 | 1012.7 |
| 20260510111602 | 11 | 338 | 0.0 | 0.0 | 0.00 | 0.00 | 0.00 | 86 | 1012.6 |
| 20260510110104 | 11 | 338 | 0.0 | 0.0 | 0.00 | 0.00 | 0.00 | 86 | 1012.6 |
| 20260510104600 | 11 | 338 | 0.0 | 0.0 | 0.00 | 0.00 | 0.00 | 86 | 1012.7 |
| 20260510103058 | 11 | 338 | 0.0 | 0.0 | 0.00 | 0.00 | 0.00 | 86 | 1012.7 |
| 20260510101607 | 11 | 338 | 0.0 | 0.0 | 0.00 | 0.00 | 0.00 | 86 | 1012.8 |
| 20260510100109 | 10 | 338 | 0.0 | 0.0 | 0.00 | 0.00 | 0.00 | 86 | 1012.5 |
| 20260510094557 | 10 | 338 | 0.0 | 0.0 | 0.00 | 0.00 | 0.00 | 86 | 1012.6 |
| 20260510093056 | 10 | 338 | 0.0 | 0.0 | 0.00 | 0.00 | 0.00 | 87 | 1012.6 |
| 20260510091555 | 10 | 338 | 0.0 | 0.0 | 0.00 | 0.00 | 0.00 | 87 | 1012.7 |
| 20260510090054 | 10 | 338 | 0.0 | 0.0 | 0.00 | 0.00 | 0.00 | 87 | 1012.7 |
| 20260510084609 | 10 | 338 | 0.0 | 0.0 | 0.00 | 0.00 | 0.00 | 87 | 1012.8 |
| 20260510083053 | 10 | 338 | 0.0 | 0.0 | 0.00 | 0.00 | 0.00 | 86 | 1012.8 |
| 20260510081554 | 10 | 338 | 0.0 | 0.0 | 0.00 | 0.00 | 0.00 | 87 | 1013.0 |
| 20260510080059 | 10 | 338 | 0.0 | 0.0 | 0.00 | 0.00 | 0.00 | 86 | 1012.9 |
| 20260510074551 | 11 | 338 | 0.0 | 0.0 | 0.00 | 0.00 | 0.00 | 86 | 1012.9 |
| 20260510073050 | 11 | 338 | 0.0 | 0.0 | 0.00 | 0.00 | 0.00 | 86 | 1012.9 |
| 20260510071546 | 11 | 338 | 0.0 | 0.0 | 0.00 | 0.00 | 0.00 | 86 | 1012.8 |
| 20260510070048 | 11 | 338 | 0.0 | 0.0 | 0.00 | 0.00 | 0.00 | 86 | 1012.6 |
| 20260510064544 | 11 | 338 | 0.0 | 0.0 | 0.00 | 0.00 | 0.00 | 86 | 1012.6 |
| 20260510063039 | 12 | 338 | 0.0 | 0.0 | 0.00 | 0.00 | 0.00 | 85 | 1012.5 |
| 20260510061539 | 12 | 338 | 0.0 | 0.0 | 0.00 | 0.00 | 0.00 | 85 | 1012.5 |
| 20260510060044 | 12 | 338 | 0.0 | 0.0 | 0.00 | 0.00 | 0.00 | 84 | 1012.5 |
| 20260510054537 | 12 | 338 | 0.0 | 0.0 | 0.00 | 0.00 | 0.00 | 84 | 1012.5 |
| 20260510053038 | 13 | 338 | 0.0 | 0.0 | 0.00 | 0.00 | 0.00 | 84 | 1012.4 |
| 20260510051537 | 13 | 338 | 0.0 | 0.0 | 0.00 | 0.00 | 0.00 | 82 | 1012.4 |
| 20260510050037 | 13 | 338 | 0.0 | 0.0 | 0.00 | 0.00 | 0.00 | 82 | 1012.3 |
| 20260510044536 | 14 | 338 | 0.0 | 0.0 | 0.00 | 0.00 | 0.00 | 81 | 1012.2 |
| 20260510043035 | 15 | 338 | 0.0 | 0.0 | 0.00 | 0.00 | 0.00 | 80 | 1011.9 |
| 20260510041534 | 15 | 338 | 0.0 | 0.0 | 0.00 | 0.00 | 0.00 | 79 | 1011.8 |
| 20260510040034 | 16 | 338 | 0.0 | 0.0 | 0.00 | 0.00 | 0.00 | 77 | 1011.6 |
| 20260510034533 | 16 | 338 | 0.0 | 0.0 | 0.00 | 0.00 | 0.00 | 75 | 1011.4 |
| 20260510033043 | 17 | 338 | 0.0 | 0.0 | 0.00 | 0.00 | 0.00 | 74 | 1011.2 |
| 20260510031532 | 18 | 338 | 0.0 | 0.0 | 0.00 | 0.00 | 0.00 | 72 | 1010.9 |
| 20260510030031 | 18 | 338 | 0.0 | 0.0 | 0.00 | 0.00 | 0.00 | 70 | 1010.8 |
| 20260510024532 | 20 | 338 | 0.0 | 0.0 | 0.00 | 0.00 | 0.00 | 68 | 1010.8 |
| 20260510023030 | 20 | 338 | 0.0 | 4.8 | 0.00 | 0.00 | 0.00 | 66 | 1010.7 |
| 20260510021611 | 21 | 338 | 0.0 | 1.6 | 0.00 | 0.00 | 0.00 | 66 | 1010.7 |
| 20260510020031 | 21 | 338 | 0.0 | 1.6 | 0.00 | 0.00 | 0.00 | 64 | 1010.5 |
| 20260510014544 | 22 | 338 | 0.0 | 4.8 | 0.00 | 0.00 | 0.00 | 62 | 1010.4 |
| 20260510013032 | 22 | 338 | 0.0 | 3.2 | 0.00 | 0.00 | 0.00 | 61 | 1010.5 |
| 20260510011528 | 23 | 31 | 0.0 | 3.2 | 0.00 | 0.00 | 0.00 | 59 | 1010.5 |
| 20260510010036 | 23 | 31 | 0.0 | 4.8 | 0.00 | 0.00 | 0.00 | 58 | 1010.5 |
| 20260510004526 | 23 | 31 | 0.0 | 4.8 | 0.00 | 0.00 | 0.00 | 56 | 1010.5 |
| 20260510003026 | 24 | 34 | 0.0 | 4.8 | 0.00 | 0.00 | 0.00 | 57 | 1010.7 |
| 20260510001524 | 24 | 350 | 0.0 | 1.6 | 0.00 | 0.00 | 0.00 | 56 | 1010.6 |
| 20260510000023 | 25 | 350 | 0.0 | 8.0 | 0.00 | 0.00 | 0.00 | 54 | 1010.8 |
| 20260509234523 | 25 | 345 | 0.0 | 6.4 | 0.00 | 0.00 | 0.00 | 54 | 1010.8 |
| 20260509233021 | 25 | 308 | 0.0 | 6.4 | 0.00 | 0.00 | 0.00 | 54 | 1010.9 |
| 20260509231520 | 25 | 312 | 1.6 | 8.0 | 0.00 | 0.00 | 0.00 | 54 | 1010.8 |
| 20260509230025 | 25 | 355 | 0.0 | 4.8 | 0.00 | 0.00 | 0.00 | 56 | 1011.0 |
| 20260509224520 | 25 | 355 | 1.6 | 8.0 | 0.00 | 0.00 | 0.00 | 55 | 1011.2 |
| 20260509223014 | 26 | 9 | 0.0 | 4.8 | 0.00 | 0.00 | 0.00 | 58 | 1011.4 |
| 20260509221513 | 26 | 10 | 0.0 | 6.4 | 0.00 | 0.00 | 0.00 | 56 | 1011.7 |
| 20260509220010 | 26 | 32 | 0.0 | 4.8 | 0.00 | 0.00 | 0.00 | 55 | 1011.9 |
| 20260509214509 | 26 | 36 | 0.0 | 6.4 | 0.00 | 0.00 | 0.00 | 56 | 1011.9 |
| 20260509213009 | 26 | 47 | 0.0 | 4.8 | 0.00 | 0.00 | 0.00 | 55 | 1012.1 |
| 20260509211505 | 26 | 333 | 0.0 | 6.4 | 0.00 | 0.00 | 0.00 | 55 | 1012.1 |
| 20260509210002 | 26 | 125 | 0.0 | 6.4 | 0.00 | 0.00 | 0.00 | 54 | 1012.2 |
| 20260509204502 | 26 | 138 | 0.0 | 1.6 | 0.00 | 0.00 | 0.00 | 54 | 1012.3 |
| 20260509203101 | 26 | 138 | 0.0 | 1.6 | 0.00 | 0.00 | 0.00 | 55 | 1012.5 |
| 20260509201605 | 26 | 138 | 0.0 | 1.6 | 0.00 | 0.00 | 0.00 | 55 | 1012.7 |
| 20260509200056 | 25 | 139 | 0.0 | 1.6 | 0.00 | 0.00 | 0.00 | 56 | 1012.7 |
| 20260509194558 | 25 | 138 | 0.0 | 1.6 | 0.00 | 0.00 | 0.00 | 60 | 1012.9 |
| 20260509193049 | 25 | 139 | 0.0 | 0.0 | 0.00 | 0.00 | 0.00 | 60 | 1013.0 |
| 20260509191554 | 24 | 138 | 0.0 | 3.2 | 0.00 | 0.00 | 0.00 | 60 | 1013.1 |
| 20260509190045 | 23 | 138 | 0.0 | 1.6 | 0.00 | 0.00 | 0.00 | 61 | 1013.2 |
| 20260509184536 | 22 | 138 | 0.0 | 1.6 | 0.00 | 0.00 | 0.00 | 62 | 1013.3 |